Wind_Speed
24 22 19 15 11 10 12 11 6 5 9 8 6 9 12 13 13 12 12 13 13 13 12 9 7 6 7 10 12 13 14 18 19 13 9 13 17 22 25 24 23 24 22 24 27 20 13 9 4 1 3 2 1 1 3 4 5 6 6 7 7 8 8 8 8 8 9 9 9 9 9 9 11 12 14 15 16 17 17 18 18 19 19 21 24 25 25
24 25 22 17 16 17 14 10 5 5 8 11 13 12 13 16 15 9 7 10 13 16 14 9 8 8 9 11 13 13 13 16 18 14 12 18 23 26 28 27 29 29 28 33 36 22 10 6 4 3 2 0 1 2 4 5 6 6 7 8 8 8 8 8 8 9 9 10 10 10 10 10 12 15 16 17 17 18 19 19 18 19 21 23 25 25 26
21 23 23 19 20 21 15 10 10 9 9 13 17 12 13 19 17 9 5 4 8 14 16 13 12 11 12 13 14 13 15 18 19 17 19 24 29 30 30 29 30 31 32 31 24 10 8 4 1 4 5 3 1 2 3 4 5 6 7 7 8 8 8 8 8 8 8 8 8 9 10 11 13 15 16 17 18 18 18 18 19 21 23 24 25 25 26
18 19 22 23 22 19 14 11 13 13 11 15 18 12 9 13 16 13 8 6 6 9 11 12 13 13 13 14 14 15 17 18 18 19 22 27 30 31 31 30 29 29 27 21 9 2 3 1 2 3 7 6 3 2 2 3 4 5 6 6 7 8 8 8 7 7 7 8 8 9 11 12 13 15 16 17 18 18 18 19 21 23 24 25 25 25 26
15 15 17 20 19 14 10 11 14 16 16 17 19 15 8 9 14 14 10 8 9 9 8 9 11 11 12 13 13 15 17 18 19 22 24 27 30 30 28 27 26 24 23 17 8 5 6 4 4 2 8 8 5 4 3 2 3 3 4 5 6 7 7 6 6 7 7 8 9 10 11 12 13 15 16 17 18 19 20 21 22 23 24 25 25 25 25
12 11 11 15 20 16 12 12 13 17 19 19 20 18 13 12 15 17 14 12 12 11 8 7 8 11 13 14 15 17 18 19 22 24 26 27 28 26 23 23 22 21 18 12 6 10 14 13 9 3 8 10 8 6 4 3 2 2 3 5 5 5 5 5 5 6 8 9 11 12 13 13 14 15 17 18 18 20 21 23 23 24 25 25 25 25 25
9 9 10 18 22 19 17 16 15 16 19 20 20 19 18 16 16 18 19 17 16 15 12 10 10 12 14 16 18 20 20 22 24 25 25 25 25 22 21 21 21 19 16 11 10 14 20 18 11 5 9 11 10 8 5 3 2 2 3 4 4 4 5 5 5 6 8 10 12 13 14 15 16 17 18 19 20 21 23 24 25 25 25 25 25 25 26
9 10 13 20 24 21 20 20 17 16 18 21 21 21 20 20 19 19 19 17 17 17 17 16 16 16 18 21 22 23 22 23 23 23 22 22 22 21 21 21 20 20 18 16 19 24 25 17 9 5 9 11 10 8 6 4 2 2 2 3 4 4 5 5 6 7 8 11 12 14 16 17 18 19 19 20 21 22 24 25 25 26 25 25 25 26 26
11 11 13 18 21 20 21 22 20 17 18 20 22 22 21 23 25 23 19 16 16 17 17 18 20 21 23 23 24 23 20 19 21 21 22 21 22 23 23 22 20 19 19 18 18 18 16 11 6 5 9 10 9 7 6 5 3 2 2 3 4 5 5 6 7 8 9 11 13 15 16 18 19 20 21 21 22 23 24 25 25 25 25 25 26 26 26
13 12 13 17 20 20 22 23 22 21 21 20 21 22 22 23 25 24 20 17 17 19 19 20 23 25 26 25 25 23 21 20 23 26 25 24 24 26 25 22 18 17 18 17 14 11 8 5 4 6 8 9 8 6 6 5 4 3 3 4 5 6 6 7 8 9 10 12 13 15 16 18 19 21 21 22 23 24 25 25 25 24 25 26 26 26 26
15 13 14 17 19 21 23 25 24 24 24 21 20 22 24 24 23 23 22 20 19 20 20 21 24 26 28 29 29 28 27 26 28 31 32 29 26 25 23 18 12 10 11 10 7 4 3 3 5 7 7 7 7 6 5 5 5 5 4 5 6 7 7 8 9 10 11 12 14 15 16 18 19 21 22 23 24 25 25 24 24 24 25 26 26 26 26
17 17 17 19 19 20 23 25 26 27 28 25 22 23 26 27 27 26 25 23 22 21 22 23 24 26 28 30 32 33 32 31 32 35 34 28 23 22 20 15 9 6 6 5 2 2 3 5 6 7 7 6 6 5 6 6 6 6 6 7 8 8 8 9 10 11 12 13 14 16 17 18 20 22 23 24 24 25 24 24 24 25 26 27 26 25 25
20 21 20 21 22 21 22 24 26 29 30 29 27 25 25 27 29 30 29 27 25 24 25 26 28 30 32 34 35 36 36 36 36 35 29 23 20 19 17 13 8 6 6 5 3 3 4 6 7 7 7 7 6 6 7 7 8 8 9 9 10 10 10 11 11 12 13 14 15 17 17 18 20 22 24 25 25 24 24 24 25 26 27 26 25 25 26
21 21 21 22 24 24 23 23 24 26 27 27 26 25 23 24 27 30 31 31 30 29 29 30 31 32 33 33 32 32 33 33 31 29 24 19 17 16 12 7 5 7 8 7 5 5 6 7 7 8 8 8 8 7 8 9 10 10 11 12 12 13 13 12 12 13 14 15 17 17 18 19 20 22 24 25 25 24 24 24 25 26 27 26 26 26 27
22 20 21 22 23 23 21 21 22 22 24 24 23 22 21 21 24 28 31 32 32 32 31 31 31 31 30 28 27 26 25 24 23 24 22 17 15 15 9 3 6 9 9 7 7 8 9 9 9 10 10 10 9 9 10 11 11 12 13 14 15 15 15 14 14 15 16 17 18 19 19 19 21 22 23 25 25 23 23 24 25 26 26 26 26 27 29
23 22 22 22 23 21 19 18 19 20 21 22 21 20 20 20 21 23 25 26 28 28 28 28 29 29 28 27 27 25 23 22 22 23 21 16 15 16 10 5 8 11 11 10 10 11 11 12 12 12 12 12 12 12 12 12 13 13 14 15 16 17 16 15 16 16 17 18 19 19 20 20 21 22 24 24 24 23 23 24 25 26 26 26 26 28 30
24 25 25 24 23 21 20 19 18 18 19 19 19 18 18 20 21 21 22 23 24 26 27 27 28 29 29 27 25 23 23 23 23 22 21 17 16 17 14 11 12 13 13 14 14 13 14 14 14 14 14 14 13 13 13 13 14 14 15 16 17 17 16 16 16 17 18 18 19 20 21 21 22 23 24 24 23 23 24 25 26 26 25 26 27 29 31
26 26 27 26 24 23 22 21 20 18 18 18 18 17 17 19 20 22 23 24 25 26 27 28 28 28 28 26 24 22 22 23 21 19 18 17 17 18 17 16 14 14 15 15 14 13 14 14 14 15 15 14 14 14 14 14 14 15 15 16 16 16 16 16 17 18 19 19 19 20 21 22 23 24 24 24 23 23 24 25 25 25 25 25 27 30 32
28 28 28 27 26 25 25 23 21 20 20 19 19 18 18 19 21 22 24 25 24 24 25 25 25 25 25 23 22 20 18 18 19 19 18 17 20 23 23 21 19 17 16 14 12 12 14 15 15 15 15 14 14 14 14 14 15 15 15 15 15 15 15 15 16 18 19 19 19 20 21 23 24 25 24 23 22 22 23 24 23 23 24 25 28 30 31
28 28 28 28 28 28 27 25 23 21 20 20 21 22 22 22 23 24 24 25 24 23 23 23 23 23 23 21 20 19 17 16 17 18 18 19 23 27 28 25 23 20 17 12 11 13 15 15 15 15 15 14 14 14 14 14 15 15 15 14 14 14 15 15 16 18 19 19 20 20 21 22 23 23 22 21 20 20 21 22 22 22 23 26 28 29 29
28 29 29 30 30 30 28 27 26 24 22 21 22 23 24 24 23 23 24 25 25 23 22 22 23 23 23 21 18 18 17 17 16 15 17 21 25 27 28 25 22 20 17 12 11 13 15 14 14 14 15 15 15 15 14 13 13 13 13 13 14 14 15 16 16 18 19 20 20 20 20 20 20 20 19 17 17 19 20 20 20 22 24 26 28 28 27
29 29 30 31 32 32 31 30 31 30 27 25 23 24 26 27 25 24 25 28 28 26 23 23 24 24 23 22 19 18 17 16 14 12 13 21 27 28 27 26 23 19 16 12 12 14 15 14 14 14 14 15 15 14 13 12 11 12 13 13 14 15 16 16 17 18 19 19 19 19 18 18 17 16 16 15 17 18 19 19 19 22 24 26 26 26 26
31 31 32 33 35 35 34 33 33 32 31 28 26 25 27 28 27 25 26 29 30 28 25 24 24 25 25 24 22 20 18 16 14 12 12 18 26 31 31 30 25 19 15 13 12 13 14 13 13 14 14 14 14 13 12 11 11 12 13 14 15 16 16 16 17 18 19 18 18 18 18 18 16 15 14 15 17 19 18 18 19 21 23 24 24 24 25
34 33 33 34 35 34 33 32 33 33 32 30 28 27 27 28 27 26 26 28 29 28 26 25 25 25 26 25 23 22 20 19 17 16 18 19 23 31 36 33 27 20 15 13 12 13 13 12 12 13 13 13 12 12 11 11 11 12 13 14 15 16 17 18 18 18 18 18 19 19 19 18 16 14 13 14 16 17 16 17 18 20 22 22 23 23 25
34 34 34 34 34 33 32 31 33 34 34 32 30 27 26 26 26 25 25 26 27 27 26 25 24 25 25 25 23 22 22 20 19 20 23 23 22 29 36 32 26 21 15 13 12 11 10 10 11 12 11 11 11 11 11 11 11 12 13 15 16 16 17 18 18 19 18 18 18 19 18 17 16 14 13 14 16 15 15 16 17 19 21 22 22 23 24
34 34 34 34 34 34 33 33 33 35 35 34 31 28 25 24 25 24 23 23 25 26 24 23 24 24 25 25 23 22 21 20 19 20 22 22 20 23 28 30 26 20 16 13 11 8 7 8 10 10 9 10 10 11 11 11 12 13 14 15 16 16 18 18 18 18 18 17 17 17 16 14 13 12 13 14 15 15 15 16 17 19 20 21 22 23 23
32 33 34 34 34 35 35 34 33 33 34 34 32 29 27 25 24 24 23 23 24 25 24 23 23 24 25 24 23 21 20 20 20 19 18 16 16 19 25 28 23 18 15 13 10 7 5 7 8 8 9 10 10 10 11 11 12 13 14 15 16 17 18 18 18 18 18 17 16 15 13 12 10 11 12 14 14 14 14 15 17 18 19 20 21 22 23
31 33 35 35 35 35 35 34 33 32 33 33 32 31 29 27 26 25 24 23 24 25 25 24 24 25 25 24 22 20 20 21 22 21 20 16 16 20 22 22 20 16 12 10 9 7 5 6 8 9 10 11 9 9 10 11 12 13 15 16 17 18 18 18 18 18 18 17 16 14 13 11 10 10 12 13 13 13 13 15 16 17 18 19 21 21 22
32 34 35 36 35 35 34 34 33 32 32 32 32 31 30 29 28 27 26 24 24 25 26 25 25 25 25 23 21 19 19 21 23 24 23 18 14 21 23 20 17 15 13 10 8 7 7 7 8 10 11 10 10 10 10 11 13 15 16 17 18 19 19 19 19 18 17 16 15 14 12 10 10 10 12 13 13 12 13 14 15 16 18 19 20 21 22
34 35 35 36 36 35 34 34 34 33 32 32 32 32 32 30 29 28 26 25 25 26 26 26 26 26 24 23 22 21 19 19 21 21 21 16 11 18 22 21 18 15 13 11 9 10 10 9 10 12 12 11 10 10 11 13 15 16 17 18 19 19 20 19 18 17 16 16 15 13 11 10 10 10 12 12 12 12 12 13 14 15 17 18 20 21 22
35 34 34 35 36 35 34 33 33 32 32 32 32 32 31 31 29 28 26 25 25 26 26 27 27 27 24 23 22 22 21 20 20 18 18 18 16 13 14 19 18 13 10 10 11 12 11 11 11 13 13 12 11 11 12 14 16 17 18 19 19 20 20 19 17 16 16 16 14 12 11 10 10 10 12 12 12 12 12 12 13 15 16 18 19 20 21
35 34 35 35 35 35 35 34 33 32 32 32 32 31 31 30 29 27 27 26 26 27 28 28 28 27 24 23 23 23 21 20 20 19 19 23 28 26 19 18 16 12 9 11 13 14 13 11 12 13 13 12 11 12 14 17 18 18 18 18 19 19 18 17 16 16 16 16 14 12 10 9 9 10 11 12 12 11 12 12 12 14 15 17 18 20 21
35 34 34 34 35 35 35 34 33 33 33 33 32 32 31 31 29 28 28 29 29 29 29 29 28 26 24 24 24 23 22 21 21 21 20 24 31 35 28 22 18 14 12 13 14 15 13 12 13 14 13 11 11 13 16 18 19 19 19 19 19 18 17 16 16 16 17 16 14 12 10 9 9 10 11 12 12 11 11 11 12 13 15 16 18 19 20
36 34 34 34 34 35 34 34 34 33 33 33 33 33 32 31 30 29 30 31 31 31 31 30 28 26 24 24 24 24 23 22 22 22 23 25 31 35 31 24 21 18 16 15 16 16 15 14 14 12 11 11 12 15 17 18 19 20 20 19 18 17 16 15 16 17 17 16 14 12 10 9 9 10 11 12 12 11 11 11 12 13 14 16 17 18 19
35 34 34 34 34 34 34 34 34 34 34 34 34 34 33 32 32 31 31 33 33 33 31 30 29 26 25 24 24 24 25 24 22 23 24 26 33 37 34 28 24 22 19 17 18 18 16 15 13 11 10 11 13 16 17 18 19 19 18 17 16 15 15 15 16 17 17 16 14 12 10 9 9 10 11 12 11 11 11 11 11 12 14 15 16 17 18
35 34 35 34 34 34 35 34 34 34 34 35 35 34 34 34 33 33 33 33 33 33 31 30 28 26 25 25 25 25 26 25 24 23 24 26 31 36 36 32 27 23 21 20 21 20 17 15 12 11 11 12 14 16 17 18 18 17 16 15 14 14 14 15 16 16 16 15 14 12 10 9 9 10 11 12 11 11 11 11 11 12 13 14 15 16 17
34 34 34 34 34 34 34 34 34 34 35 35 35 35 35 36 35 35 34 33 32 32 31 30 29 27 26 26 27 27 28 28 27 26 26 25 23 24 26 28 26 22 21 23 23 21 17 14 12 11 12 13 15 16 17 17 16 14 13 13 13 13 14 15 15 15 15 14 13 12 10 10 9 10 11 12 11 11 11 10 10 11 12 13 14 16 17
34 35 35 34 34 34 34 34 34 34 34 35 36 36 37 37 37 36 35 34 33 32 32 32 30 28 27 28 28 28 30 30 29 28 27 24 21 20 21 24 25 23 22 23 23 20 16 13 12 12 12 13 14 15 16 15 14 13 13 13 12 13 14 15 14 14 14 14 13 12 10 10 10 10 11 12 11 11 10 10 10 11 12 13 14 15 16
34 34 34 34 34 35 35 34 34 34 34 34 35 36 37 37 37 37 36 36 35 34 34 33 32 29 28 28 29 30 31 31 31 29 28 26 26 27 26 26 26 24 21 21 20 18 16 14 13 12 12 13 13 14 14 13 13 13 14 13 13 13 14 14 14 14 13 13 12 11 10 10 10 10 11 12 11 11 11 10 10 11 12 12 13 14 16
31 31 31 31 32 32 32 32 32 32 33 33 34 35 36 36 37 37 36 36 35 35 35 35 33 30 28 29 30 32 32 31 31 31 31 29 29 31 30 26 24 23 21 20 20 19 17 15 14 14 13 13 13 12 12 12 12 13 14 14 13 13 14 14 13 13 13 12 12 11 10 10 10 10 11 11 11 11 10 10 10 10 11 12 13 14 15
29 29 29 29 28 28 28 28 28 29 30 31 32 33 35 36 36 35 35 35 35 36 36 35 33 31 31 32 33 34 33 32 32 32 31 29 31 33 31 27 24 23 22 21 20 20 19 17 16 15 14 13 13 12 12 12 13 13 13 14 14 14 14 14 14 13 12 11 11 10 10 10 10 10 11 11 11 10 10 10 10 10 11 12 12 13 14
27 27 27 27 26 25 24 25 25 26 27 29 30 32 33 34 35 34 34 34 34 34 35 35 34 34 34 35 35 35 33 32 32 32 31 30 32 34 33 29 26 25 25 23 21 21 20 19 17 16 14 13 12 11 11 12 13 12 12 13 13 14 14 14 14 13 12 11 10 10 10 9 10 10 10 11 11 10 10 10 10 10 11 11 12 12 13
25 25 24 23 23 23 23 23 24 25 26 27 29 30 31 32 32 32 32 31 31 30 31 32 33 35 36 35 34 33 33 32 31 31 31 32 34 34 32 29 28 28 27 25 23 22 21 19 18 17 15 13 12 11 11 13 13 12 11 11 12 13 14 13 13 12 11 10 10 9 9 9 9 10 10 10 11 10 10 10 9 10 10 11 12 12 13
22 22 22 22 22 22 22 23 24 24 25 26 27 29 29 30 29 29 29 29 28 27 27 28 31 34 36 34 31 30 31 30 28 27 28 31 33 32 30 30 31 32 30 27 25 23 22 20 19 17 15 13 12 12 12 13 13 13 11 11 12 12 13 13 12 11 10 10 9 9 9 9 9 9 10 10 10 10 10 9 9 9 10 11 11 12 12
20 21 22 23 23 23 23 23 24 24 24 24 25 26 27 27 27 27 27 28 29 29 29 29 31 33 34 32 29 28 28 28 28 27 29 32 34 34 32 32 33 33 30 27 26 25 23 20 18 16 15 14 13 13 13 13 13 12 12 11 12 12 12 12 12 10 10 9 9 9 9 9 9 9 10 10 10 10 10 10 9 9 9 10 11 11 11
21 22 22 23 23 23 23 23 23 22 21 21 22 22 23 24 23 23 23 24 25 26 28 30 31 32 31 29 28 29 29 28 28 29 29 30 31 32 31 31 31 30 28 27 27 25 21 18 16 16 15 15 15 15 14 13 12 12 11 11 11 11 10 10 10 10 9 8 8 8 8 8 9 9 9 9 9 10 10 9 9 8 9 10 10 11 11
21 22 22 22 22 23 23 22 21 20 18 18 20 20 20 19 18 17 18 19 20 23 25 27 30 31 30 29 29 30 30 29 30 30 28 26 26 28 29 29 29 28 28 28 26 21 17 16 17 17 17 17 16 15 14 13 12 11 10 9 9 9 9 10 10 10 9 8 7 7 7 8 9 9 9 9 9 9 9 9 8 8 8 9 9 10 10
20 21 20 20 20 21 22 22 20 18 17 18 20 21 19 18 16 15 15 17 20 23 25 27 30 31 30 29 30 31 31 31 31 30 27 25 26 27 28 28 28 29 28 25 20 17 16 17 18 18 18 18 17 15 14 14 12 10 9 8 8 8 10 10 11 10 9 8 7 7 7 8 8 8 8 8 9 9 9 9 8 7 7 8 9 9 9
19 19 19 18 18 20 21 20 18 16 17 19 19 19 18 18 17 15 15 18 21 24 25 27 29 30 30 29 28 29 30 31 31 30 29 29 29 30 29 28 28 27 25 20 17 16 17 18 19 19 20 19 16 15 14 13 11 9 9 9 9 9 10 11 11 10 9 8 7 7 7 8 8 8 8 8 9 9 9 8 8 7 7 7 8 8 8
17 17 17 17 17 19 20 18 17 16 16 16 16 17 18 18 17 16 16 18 23 27 27 26 27 29 30 29 28 28 28 29 30 31 33 34 35 33 30 28 27 26 23 20 18 17 18 19 20 20 20 18 16 15 14 12 10 8 8 9 9 9 10 10 10 10 9 8 7 7 7 7 7 8 7 8 8 8 8 7 7 7 6 6 7 7 7
15 16 17 17 17 18 19 17 16 15 15 14 15 17 17 16 15 14 13 14 21 28 31 29 28 28 29 28 27 26 25 26 28 31 35 38 37 33 30 28 27 26 23 19 17 17 19 20 21 20 19 17 16 14 13 11 9 9 9 10 9 9 9 9 9 9 9 8 8 7 7 7 7 7 7 8 8 8 7 7 6 6 6 6 6 7 7
15 16 17 18 18 18 18 16 14 14 14 15 17 18 16 14 13 12 10 10 17 26 32 31 28 27 27 27 27 26 25 25 27 30 33 34 33 30 29 28 27 24 20 18 18 20 22 22 21 20 18 17 15 13 12 11 10 10 11 10 9 8 8 9 9 9 9 9 8 7 6 6 6 6 6 7 7 7 7 6 6 5 5 6 6 6 6
Wind_Direction
190 185 185 179 172 180 187 178 153 187 222 228 212 217 229 233 235 239 249 260 266 270 279 288 295 307 310 306 313 320 325 329 329 328 339 344 337 333 331 326 321 318 309 307 311 301 277 291 330 106 134 122 105 13 0 355 353 351 350 351 354 358 359 356 351 344 339 340 341 337 332 327 324 325 327 327 324 321 319 317 315 312 311 312 313 314 314
196 189 187 180 178 193 195 176 179 256 251 217 206 219 228 217 208 213 245 263 266 264 263 262 262 279 298 301 305 311 310 312 316 319 327 329 323 318 315 311 312 311 304 302 306 296 249 247 319 330 321 17 59 9 2 354 351 352 351 354 359 0 0 360 356 350 347 347 344 338 331 324 322 323 324 322 319 318 317 315 315 315 316 315 315 315 315
207 198 192 188 188 197 201 195 209 238 245 220 214 223 228 214 205 210 241 253 255 257 255 250 252 272 291 292 289 292 295 303 311 310 305 304 304 304 303 302 304 307 309 307 303 274 206 202 324 315 303 307 329 349 354 346 346 353 357 0 4 3 3 5 3 357 353 349 343 336 330 324 322 322 321 318 316 316 316 315 317 320 319 318 317 316 316
208 205 203 204 199 200 210 213 211 221 234 226 219 223 232 222 214 216 222 222 238 253 251 243 245 262 277 279 280 286 292 296 298 295 293 294 296 297 298 299 300 308 320 323 313 215 193 215 44 319 293 294 295 293 311 324 337 355 3 6 7 3 3 5 4 360 353 348 341 335 331 328 325 324 322 321 320 319 318 319 321 322 319 317 317 316 316
204 211 215 205 189 188 212 219 215 224 231 221 213 218 242 242 227 222 214 216 240 261 267 253 249 258 266 271 278 281 283 286 287 291 297 298 297 296 296 298 300 310 325 329 336 22 26 36 56 322 283 283 279 267 269 291 326 357 7 8 7 2 358 360 357 353 350 349 344 338 336 333 329 328 328 327 327 325 323 323 323 322 319 317 317 317 317
206 217 214 183 172 182 207 214 217 225 226 219 215 222 238 238 228 225 220 224 246 265 273 263 252 254 256 262 271 275 281 292 299 304 308 305 299 296 297 297 298 309 324 331 354 22 18 22 34 343 282 278 273 264 261 270 308 356 7 7 6 358 353 351 347 345 346 346 343 340 339 336 332 332 333 332 332 329 327 325 324 321 319 318 319 320 320
210 205 179 168 175 189 200 205 219 227 222 217 219 226 236 235 228 226 226 238 260 265 258 253 248 252 260 267 274 281 293 305 307 306 307 306 302 299 298 298 298 301 304 289 276 307 331 353 16 340 287 279 270 266 264 266 291 352 5 5 1 350 345 341 337 338 338 338 338 338 338 338 337 336 336 336 334 331 327 325 323 321 321 321 321 321 321
212 202 180 175 183 191 196 202 217 228 221 217 220 228 237 239 237 236 236 247 263 262 258 261 263 268 274 277 283 290 299 309 308 297 292 297 305 307 304 303 305 307 299 281 277 295 314 338 5 329 286 276 270 268 268 268 285 337 3 359 347 335 332 328 326 330 331 332 335 337 338 339 339 339 338 336 332 329 327 325 323 322 322 322 323 323 322
226 216 200 195 197 202 204 204 210 221 222 220 223 232 240 241 240 242 244 249 253 251 251 257 263 270 274 277 282 286 294 310 317 304 288 286 298 308 308 309 318 326 322 310 304 313 328 349 1 313 284 276 271 270 271 274 284 319 351 346 331 324 321 319 318 321 326 329 332 334 336 337 337 336 335 333 330 328 326 324 323 323 323 324 325 325 324
243 232 218 211 211 212 210 206 208 219 223 223 227 233 238 239 237 238 242 243 242 243 247 253 259 265 269 272 276 281 287 300 310 310 301 291 293 300 305 313 327 336 333 327 330 343 356 356 325 296 284 280 279 280 284 284 289 313 335 329 321 318 315 311 312 316 320 324 327 328 331 332 332 332 330 329 327 326 325 324 324 324 324 325 327 327 325
251 244 234 225 220 217 215 211 211 216 220 224 226 227 230 236 239 241 247 249 245 242 245 252 258 263 267 273 279 285 290 293 298 302 301 296 294 297 303 314 326 330 329 334 345 358 342 300 289 287 285 287 291 296 297 296 299 311 320 318 314 313 311 307 307 311 315 317 320 322 324 326 327 327 326 326 326 326 325 324 324 325 327 329 330 329 325
254 251 243 237 228 220 216 216 216 216 219 223 223 223 231 241 246 246 251 257 259 257 256 258 262 265 269 275 280 283 287 289 292 294 295 295 297 300 302 305 303 299 307 312 305 284 274 272 277 282 286 294 304 310 307 303 304 309 311 310 307 306 305 303 303 306 308 311 314 316 318 321 323 323 322 323 325 325 324 324 326 328 330 331 330 327 323
251 251 249 246 240 228 218 218 220 222 224 227 228 230 239 247 249 247 249 254 260 265 269 272 273 273 274 276 278 280 282 284 286 287 287 292 300 299 294 291 283 271 263 252 243 265 269 268 275 280 285 294 307 314 311 305 305 307 305 302 299 298 298 298 299 301 303 305 308 310 313 317 320 321 322 323 325 325 325 326 329 331 331 330 328 326 325
249 247 246 247 247 241 229 222 222 224 228 230 230 233 240 246 246 245 248 252 256 262 269 273 274 274 274 276 277 280 282 283 285 283 282 288 294 290 285 279 257 238 236 239 255 275 276 277 283 286 288 293 298 304 306 304 305 305 302 297 293 291 292 295 297 298 298 300 303 305 309 313 318 321 323 322 324 325 326 328 331 331 330 329 329 330 330
247 245 243 245 249 252 246 236 230 230 232 233 231 232 237 242 243 244 247 251 256 260 264 267 268 269 271 273 276 280 283 286 288 285 282 281 279 274 270 222 199 216 228 243 262 275 280 283 286 289 292 295 296 298 299 300 302 302 298 294 289 286 288 291 293 295 296 298 300 303 307 312 316 321 322 323 324 326 327 329 331 331 330 331 332 333 332
253 254 254 252 254 258 259 252 244 240 240 241 240 237 235 236 239 244 248 252 255 258 259 262 266 269 271 275 281 285 287 289 290 287 282 274 262 261 257 210 198 215 229 243 258 272 281 284 286 292 297 300 301 301 299 299 299 297 293 289 285 283 284 287 288 291 294 297 300 304 308 311 315 320 323 325 325 325 327 330 332 331 332 334 335 334 333
257 259 260 260 259 261 262 261 258 254 251 251 251 249 245 244 244 247 250 253 255 257 259 261 264 269 273 278 284 289 290 290 292 291 286 272 256 254 251 231 218 224 235 247 259 271 278 283 289 297 302 305 306 304 302 299 296 293 290 286 284 283 282 283 285 289 294 299 302 305 309 312 317 322 325 325 325 327 331 333 333 333 334 336 335 334 335
255 258 261 266 267 266 266 266 267 266 263 260 260 259 258 257 255 253 253 255 256 258 261 264 267 270 275 280 284 287 288 289 290 293 289 274 255 247 240 229 223 228 238 249 262 272 278 285 293 300 305 306 306 305 302 299 295 293 292 289 286 284 282 280 284 291 296 300 303 305 310 316 321 324 325 326 329 333 334 333 332 333 335 335 335 337 338
257 259 265 270 272 272 271 270 269 269 267 265 264 260 257 256 257 256 257 258 260 262 267 273 277 279 282 284 285 284 284 285 287 287 282 269 255 247 240 230 224 226 233 245 261 274 281 287 295 303 306 305 306 306 301 297 295 294 293 291 288 286 283 283 288 294 298 301 306 311 316 321 324 325 326 328 331 332 330 329 330 333 335 336 339 341 342
258 259 264 268 270 271 272 271 269 268 266 265 263 260 256 253 254 258 262 264 267 270 274 280 284 285 286 287 285 280 279 283 286 281 267 252 249 251 245 231 216 212 218 234 257 271 279 286 294 301 304 305 306 304 298 296 295 294 292 291 290 289 288 289 293 297 300 306 312 316 319 322 324 323 324 325 326 327 327 328 331 335 338 341 344 344 345
256 257 260 264 266 268 270 269 268 267 264 260 258 259 258 255 253 257 264 269 272 275 277 281 284 285 286 285 282 279 278 282 288 283 260 241 240 249 248 233 211 199 202 218 248 266 275 284 291 296 301 305 304 300 298 297 296 293 292 292 294 294 293 294 298 303 307 311 313 315 318 319 319 317 317 319 322 325 328 331 335 339 342 345 347 347 348
251 253 257 260 263 265 266 266 267 267 266 263 259 258 259 259 258 259 264 270 273 275 276 278 281 284 286 284 281 279 278 281 289 292 268 245 239 242 244 236 218 201 195 208 241 263 272 281 289 295 300 303 299 296 298 299 297 296 295 295 296 297 298 301 305 306 307 308 310 312 314 314 312 312 316 321 325 328 332 336 340 343 345 347 348 349 351
247 248 250 254 257 262 265 268 269 270 270 269 266 262 259 259 260 259 260 264 269 272 274 275 276 280 283 284 283 281 278 278 280 282 277 260 245 239 240 238 225 207 196 202 230 257 269 275 287 295 298 297 294 293 296 299 299 300 299 298 300 300 301 305 306 304 305 307 309 311 313 313 315 319 324 328 330 331 335 340 343 345 347 348 349 351 354
251 251 251 253 256 261 266 270 272 273 272 270 268 265 259 256 257 258 258 261 266 271 273 273 273 275 279 282 283 281 280 279 276 277 285 281 257 243 243 238 220 203 196 198 215 243 261 271 285 294 293 289 287 289 294 300 303 304 303 302 302 302 303 305 306 306 308 310 312 314 316 317 321 327 331 331 331 332 337 343 345 346 347 348 351 354 357
254 255 255 256 259 262 264 266 268 270 270 268 267 266 259 253 253 255 257 260 264 268 271 272 272 274 277 279 279 279 278 279 280 282 288 291 276 255 245 231 211 202 201 195 201 225 251 271 286 289 283 278 280 288 297 306 309 310 308 306 304 304 305 307 309 310 311 311 313 315 317 319 324 329 329 328 331 334 339 345 346 346 347 350 354 357 359
255 255 256 257 258 260 260 260 262 265 267 267 266 265 260 253 250 251 253 258 264 268 270 273 275 277 278 279 279 279 277 276 280 286 289 288 275 248 224 207 201 207 206 191 188 209 245 273 282 278 269 268 277 289 301 310 313 313 312 309 307 307 308 308 309 308 308 311 314 315 315 318 323 323 323 328 333 337 342 345 346 347 349 353 355 358 360
254 255 256 255 255 256 256 256 256 259 262 264 263 263 261 254 250 250 251 255 262 267 270 273 275 277 278 280 282 283 280 275 276 285 291 279 251 221 200 191 197 211 210 198 194 202 232 264 268 261 259 265 276 292 304 312 315 314 313 312 311 310 309 307 306 307 308 312 314 313 312 316 318 318 323 331 336 340 343 345 345 347 351 354 356 358 1
253 254 254 254 253 253 254 255 254 255 257 259 260 261 260 256 253 253 254 256 262 268 271 273 275 275 276 279 283 284 282 278 276 282 291 280 240 215 203 198 202 207 207 206 205 202 219 248 250 248 256 265 277 295 306 313 316 317 317 316 314 311 309 308 308 309 311 312 313 314 315 318 319 321 327 334 339 341 342 342 343 348 352 354 355 358 0
249 250 251 253 253 252 253 255 255 255 254 255 257 258 258 257 256 256 258 260 264 268 271 272 274 275 276 279 282 279 278 279 277 281 292 287 234 202 199 201 197 190 190 200 214 223 228 234 235 241 253 264 275 289 301 310 317 319 318 316 314 312 311 310 309 309 311 313 314 315 317 320 321 322 328 336 341 340 339 339 343 348 353 355 355 357 359
247 247 249 251 253 253 253 254 256 256 255 253 255 256 256 257 257 258 260 262 264 266 269 270 272 274 275 277 279 276 274 275 275 280 290 285 228 192 193 197 191 183 187 203 227 237 233 228 230 238 248 259 269 280 295 307 314 316 316 315 314 313 311 309 308 310 313 315 314 315 319 321 320 322 330 338 340 337 335 338 343 348 352 354 355 356 358
248 248 248 249 251 251 251 252 254 256 256 255 255 256 256 257 258 259 262 264 264 264 266 267 270 273 275 276 275 273 271 270 268 269 271 266 253 233 208 195 191 190 196 212 232 240 235 228 230 236 245 254 264 278 295 305 309 313 314 313 312 311 310 308 309 313 316 314 313 315 319 319 317 323 333 339 338 334 333 337 342 347 350 352 354 356 357
247 248 248 248 249 249 250 250 251 253 254 255 255 256 257 258 260 262 264 265 265 264 265 266 269 272 274 274 273 270 269 268 265 260 255 254 258 257 239 210 206 213 207 209 230 241 236 231 233 239 246 255 267 286 299 303 306 309 310 309 309 309 309 310 312 315 315 312 311 316 318 316 317 324 333 337 335 331 331 335 340 345 347 350 353 355 357
248 248 247 247 247 248 249 250 250 251 252 254 255 257 259 260 261 263 266 267 266 265 265 266 269 271 272 273 272 269 268 268 267 263 256 250 250 248 239 223 221 222 208 207 228 239 236 234 239 243 250 263 280 293 299 301 303 306 307 307 308 308 309 311 313 314 312 310 311 315 316 314 317 324 331 335 334 329 329 333 338 342 344 348 352 354 355
249 249 248 247 247 247 249 250 250 251 252 253 255 257 259 260 261 263 265 266 266 266 265 266 269 271 270 270 271 269 266 265 266 268 262 247 237 235 233 225 220 217 207 208 225 235 235 237 243 248 259 274 286 293 297 300 303 306 306 306 306 308 311 313 313 311 310 309 312 315 315 315 317 323 330 334 331 327 327 331 335 339 342 346 351 353 353
250 250 250 249 248 248 249 249 250 252 253 254 256 257 258 260 261 263 265 266 266 266 265 265 267 268 269 268 268 267 263 260 262 270 268 249 235 233 234 228 220 213 207 209 222 231 233 237 245 254 267 278 285 292 297 300 302 303 302 302 305 309 311 312 311 310 310 311 313 315 315 315 316 322 329 332 328 325 325 328 332 336 340 345 349 351 351
251 251 251 251 251 250 250 250 251 252 254 256 257 258 259 260 262 263 264 265 265 264 263 263 265 266 265 264 264 262 258 255 255 263 268 261 248 243 239 230 218 210 208 213 222 227 229 235 246 258 268 277 283 290 297 300 301 300 300 302 307 311 311 310 310 310 311 312 315 315 316 315 316 321 327 328 326 324 323 325 329 334 338 343 347 349 350
252 252 252 253 253 252 253 253 253 254 255 257 259 260 261 263 264 264 264 263 262 261 261 261 262 261 259 259 259 258 255 252 252 258 265 264 253 239 228 217 208 205 210 217 222 224 226 233 246 257 266 274 283 291 299 303 304 301 299 301 307 311 311 310 311 312 313 315 315 315 315 315 316 319 324 325 323 321 320 322 326 330 334 340 344 347 349
252 253 253 254 255 255 255 256 256 256 257 259 260 261 263 264 264 265 264 263 262 261 259 259 259 257 255 256 257 255 252 250 251 256 261 256 240 223 215 208 201 202 211 221 225 227 227 232 243 254 263 273 284 294 302 307 306 302 300 303 310 314 312 311 313 315 316 316 315 314 314 314 315 317 320 321 320 318 317 320 324 326 330 336 342 346 348
253 254 254 255 256 256 257 258 258 258 259 260 261 262 262 263 263 264 264 264 262 261 259 258 256 254 253 253 253 251 249 248 248 252 256 249 231 222 221 215 206 204 214 224 230 233 233 234 240 249 257 269 282 293 301 304 302 301 303 308 314 315 312 311 314 316 316 315 314 312 311 312 312 313 314 317 319 317 316 318 322 323 326 332 339 343 347
256 256 256 256 255 256 256 257 258 258 258 259 260 261 261 262 262 262 261 261 260 259 258 257 255 252 250 250 248 245 242 241 241 246 250 243 225 217 219 218 211 211 218 225 231 237 239 238 239 244 252 263 275 286 294 297 297 300 304 309 312 312 309 310 313 314 314 314 313 310 309 309 308 308 310 315 319 317 313 314 318 320 323 328 335 340 344
258 258 258 257 255 255 255 255 255 256 257 257 258 258 259 261 261 260 258 258 258 258 257 255 252 248 245 242 240 236 234 233 235 239 242 236 221 214 217 219 215 215 221 225 230 237 242 241 240 244 250 258 268 277 287 292 295 299 304 307 309 309 308 310 313 313 311 311 309 305 304 303 303 303 307 313 316 315 311 311 314 317 320 325 331 337 342
256 256 256 255 255 254 253 253 253 254 254 254 255 256 257 259 260 260 260 259 259 259 257 254 249 245 240 235 232 230 229 229 231 234 236 230 220 217 220 221 218 219 224 227 230 236 241 243 243 248 253 257 262 271 283 291 295 298 301 304 305 306 308 310 311 310 308 306 303 300 298 298 298 300 305 311 315 314 311 308 310 313 317 321 326 333 340
252 252 253 253 252 252 251 251 252 253 253 254 255 256 257 258 259 260 260 260 258 257 255 250 244 238 233 229 227 226 225 225 228 232 230 223 215 214 219 222 222 224 227 228 230 235 240 243 246 251 255 257 259 267 278 286 290 292 295 297 300 303 306 306 305 303 301 300 297 295 293 293 294 296 302 309 313 312 309 307 307 311 314 317 321 329 337
250 252 252 252 251 252 252 254 255 256 256 257 258 258 257 258 258 258 257 255 252 250 249 245 237 230 226 224 223 223 222 222 226 227 220 211 210 216 225 229 229 229 229 228 229 234 239 242 247 253 258 258 259 264 271 278 282 285 288 291 297 302 305 304 302 299 296 294 293 292 293 293 294 296 300 306 310 310 308 306 306 308 312 315 319 325 333
251 251 252 253 254 256 257 257 258 259 259 260 261 261 261 260 260 260 260 258 253 247 243 237 230 225 223 222 220 219 217 216 217 215 210 209 216 227 235 234 228 224 221 222 225 230 235 241 248 256 260 259 258 260 264 269 275 280 285 291 299 304 303 300 296 293 291 289 288 289 290 291 292 293 297 303 309 310 308 305 305 308 313 316 318 323 331
251 251 253 256 258 259 260 259 258 259 261 264 266 266 263 261 260 262 264 260 250 237 230 225 220 217 216 216 214 213 211 210 209 208 207 210 218 225 224 218 212 210 212 218 223 227 233 241 249 255 257 256 255 256 259 263 266 271 279 290 299 303 301 296 292 288 284 282 283 287 289 289 289 290 294 302 309 311 308 306 306 309 314 317 319 324 332
250 251 254 257 260 261 261 260 259 259 262 265 267 266 261 255 253 256 257 248 230 215 210 210 208 206 206 207 208 209 210 211 211 209 207 209 214 214 208 201 199 203 211 218 223 226 233 243 250 252 251 249 249 252 256 257 258 264 275 287 296 300 301 299 295 287 280 277 279 283 284 284 284 287 294 304 310 311 309 306 306 309 313 318 322 326 332
251 253 255 257 261 264 263 262 262 263 262 262 266 268 263 253 245 243 238 228 214 202 197 197 199 200 203 205 207 209 211 214 215 213 210 207 207 204 199 197 201 208 215 220 224 229 238 247 251 249 244 241 242 246 250 252 255 265 276 285 292 296 298 297 293 285 279 278 279 281 281 281 281 285 294 305 311 312 309 306 305 308 313 317 322 327 333
252 255 256 258 260 264 266 267 268 268 264 262 265 269 264 253 242 234 224 215 206 199 195 194 196 200 203 204 205 210 215 216 216 216 214 208 203 200 199 203 211 218 220 222 225 233 243 251 250 242 234 232 233 237 243 248 255 267 278 286 292 295 293 289 285 280 275 272 273 275 278 281 282 286 296 306 311 311 310 307 305 308 313 317 321 327 333
254 256 257 255 256 260 265 269 271 271 269 268 266 261 255 247 241 236 228 215 205 200 198 196 196 199 201 202 206 211 213 210 208 208 205 199 196 197 201 206 213 220 223 224 229 238 246 247 240 230 225 225 226 229 236 245 254 267 279 287 290 288 284 280 276 273 269 267 270 273 275 278 281 287 298 308 312 313 311 307 305 307 313 316 319 325 332
253 254 252 249 249 254 260 265 268 271 273 270 262 252 243 236 233 234 232 216 203 199 198 195 194 196 199 200 199 197 193 190 191 192 190 188 190 195 200 205 212 219 223 227 233 238 239 235 227 222 220 221 222 224 233 244 253 263 273 278 277 276 276 275 272 269 266 265 267 272 276 279 283 290 299 308 314 315 312 306 303 307 311 313 316 323 331
249 249 247 244 244 249 254 258 264 267 266 261 254 244 231 220 216 219 216 196 189 191 191 190 192 195 194 189 183 179 178 180 183 183 181 183 189 196 202 207 214 219 222 226 229 229 227 224 221 219 219 219 220 225 235 246 254 262 267 268 265 263 266 268 267 264 261 259 260 265 272 277 281 289 298 309 316 317 312 305 304 308 310 313 319 325 330
Height
5907 5909 5910 5911 5912 5913 5914 5914 5914 5914 5915 5915 5916 5916 5917 5916 5917 5919 5920 5919 5919 5920 5921 5922 5922 5923 5923 5923 5922 5922 5922 5921 5920 5920 5920 5919 5918 5917 5916 5915 5914 5913 5912 5911 5911 5911 5912 5912 5911 5908 5905 5903 5903 5903 5903 5903 5902 5901 5900 5899 5897 5896 5894 5893 5892 5891 5891 5890 5890 5889 5889 5888 5887 5886 5885 5883 5882 5881 5879 5878 5877 5875 5873 5871 5869 5867 5865
5906 5907 5908 5910 5911 5912 5913 5913 5912 5912 5911 5911 5911 5912 5912 5912 5915 5916 5917 5918 5918 5919 5920 5921 5921 5922 5922 5922 5922 5922 5922 5921 5921 5921 5920 5918 5917 5916 5914 5913 5912 5911 5910 5908 5907 5907 5907 5909 5910 5909 5906 5903 5902 5902 5902 5902 5901 5900 5899 5898 5896 5895 5894 5893 5892 5890 5890 5889 5889 5888 5887 5887 5886 5885 5884 5883 5881 5880 5878 5877 5875 5873 5871 5869 5867 5864 5862
5906 5906 5907 5909 5910 5911 5912 5911 5910 5909 5909 5909 5909 5910 5910 5912 5913 5914 5915 5916 5916 5917 5918 5919 5920 5920 5921 5921 5921 5921 5921 5921 5921 5921 5919 5917 5916 5914 5912 5911 5911 5910 5908 5906 5904 5903 5904 5905 5906 5907 5906 5903 5901 5901 5901 5900 5900 5899 5898 5897 5896 5894 5893 5892 5891 5890 5889 5889 5888 5887 5887 5886 5885 5884 5883 5882 5881 5879 5878 5876 5874 5872 5869 5867 5864 5862 5859
5905 5906 5907 5908 5909 5910 5910 5910 5908 5907 5908 5908 5909 5909 5910 5911 5912 5913 5913 5915 5915 5916 5917 5918 5919 5919 5919 5919 5919 5920 5920 5920 5919 5919 5918 5916 5914 5912 5911 5911 5911 5911 5909 5907 5905 5903 5903 5904 5904 5906 5906 5904 5901 5900 5899 5899 5899 5898 5897 5895 5894 5893 5892 5891 5890 5889 5889 5888 5887 5887 5886 5885 5884 5884 5882 5881 5879 5878 5876 5874 5872 5870 5867 5865 5862 5860 5858
5903 5904 5905 5907 5908 5909 5909 5908 5907 5906 5906 5907 5908 5909 5909 5910 5912 5912 5913 5914 5914 5915 5916 5917 5917 5918 5918 5918 5918 5918 5918 5918 5917 5917 5917 5915 5913 5911 5911 5911 5911 5911 5910 5909 5908 5906 5905 5904 5903 5904 5905 5904 5902 5900 5899 5898 5897 5896 5895 5894 5893 5892 5891 5891 5890 5889 5888 5887 5886 5886 5885 5884 5883 5882 5881 5880 5878 5876 5874 5873 5871 5868 5866 5863 5861 5859 5856
5902 5903 5904 5906 5907 5908 5908 5906 5905 5904 5905 5906 5907 5908 5909 5909 5911 5912 5912 5913 5913 5914 5915 5915 5916 5916 5916 5916 5916 5916 5916 5916 5916 5916 5915 5913 5911 5910 5910 5910 5911 5911 5911 5910 5909 5907 5906 5904 5903 5903 5904 5904 5902 5900 5898 5897 5896 5895 5894 5893 5892 5891 5891 5890 5889 5888 5887 5886 5885 5884 5884 5883 5882 5881 5880 5878 5877 5875 5873 5871 5869 5867 5864 5862 5859 5857 5855
5901 5902 5904 5905 5906 5906 5906 5905 5903 5903 5904 5905 5906 5907 5907 5908 5909 5910 5911 5911 5912 5913 5914 5914 5914 5914 5914 5914 5914 5914 5915 5915 5914 5914 5913 5912 5910 5909 5909 5908 5909 5909 5910 5910 5908 5906 5905 5904 5903 5903 5904 5903 5902 5900 5898 5897 5895 5894 5893 5892 5891 5891 5890 5889 5888 5887 5886 5885 5884 5884 5883 5882 5881 5880 5878 5877 5875 5873 5871 5869 5867 5865 5862 5860 5858 5855 5853
5900 5902 5903 5904 5904 5904 5904 5904 5903 5903 5903 5904 5905 5906 5906 5907 5908 5908 5909 5910 5911 5911 5912 5912 5912 5912 5913 5913 5913 5913 5914 5914 5912 5911 5911 5910 5909 5909 5908 5907 5907 5907 5907 5907 5905 5904 5904 5903 5902 5902 5903 5903 5901 5899 5897 5896 5895 5893 5892 5891 5890 5890 5889 5888 5887 5886 5885 5885 5884 5883 5882 5880 5879 5878 5877 5875 5874 5872 5869 5867 5865 5863 5861 5858 5856 5854 5851
5898 5900 5902 5903 5903 5903 5903 5903 5904 5903 5903 5904 5905 5905 5905 5906 5906 5907 5907 5909 5909 5910 5910 5910 5911 5911 5911 5911 5912 5912 5913 5913 5911 5909 5909 5909 5908 5908 5907 5907 5905 5904 5903 5903 5903 5902 5902 5901 5901 5901 5902 5901 5900 5898 5896 5895 5894 5892 5890 5890 5889 5889 5888 5887 5886 5885 5885 5884 5882 5881 5880 5879 5878 5876 5875 5873 5872 5870 5868 5866 5864 5861 5859 5857 5855 5852 5849
5896 5898 5900 5901 5901 5901 5901 5902 5903 5903 5902 5903 5905 5905 5904 5904 5904 5905 5906 5907 5908 5908 5908 5909 5909 5909 5909 5910 5910 5911 5911 5911 5910 5908 5907 5908 5907 5907 5906 5906 5904 5903 5902 5901 5901 5900 5900 5900 5901 5901 5901 5900 5898 5896 5895 5894 5893 5891 5890 5889 5888 5888 5887 5886 5885 5884 5883 5882 5881 5880 5879 5878 5876 5875 5873 5872 5870 5868 5866 5864 5862 5860 5857 5855 5853 5850 5847
5893 5895 5897 5898 5899 5899 5900 5901 5902 5902 5901 5902 5904 5905 5904 5903 5904 5904 5904 5905 5906 5906 5907 5907 5908 5908 5908 5908 5908 5909 5909 5909 5909 5907 5906 5906 5906 5905 5905 5904 5903 5902 5902 5901 5900 5900 5900 5900 5900 5900 5899 5898 5896 5895 5894 5893 5891 5890 5889 5888 5887 5887 5886 5885 5884 5883 5882 5881 5880 5879 5878 5876 5875 5873 5872 5870 5869 5867 5865 5862 5860 5858 5855 5853 5850 5848 5845
5891 5892 5893 5894 5896 5898 5899 5899 5900 5901 5901 5901 5903 5904 5903 5903 5903 5903 5903 5904 5904 5905 5905 5906 5906 5906 5906 5906 5906 5906 5906 5906 5906 5905 5904 5903 5903 5903 5903 5903 5902 5901 5901 5901 5900 5900 5900 5900 5900 5899 5898 5896 5895 5893 5892 5891 5890 5889 5888 5887 5887 5886 5885 5884 5883 5882 5881 5880 5878 5877 5876 5875 5874 5872 5870 5869 5867 5865 5863 5861 5858 5856 5853 5851 5848 5846 5843
5889 5889 5890 5891 5892 5894 5896 5897 5898 5899 5900 5901 5902 5903 5902 5901 5901 5901 5902 5902 5903 5903 5903 5904 5904 5903 5903 5903 5903 5902 5902 5903 5903 5902 5902 5901 5901 5901 5901 5901 5900 5900 5900 5901 5900 5900 5900 5899 5898 5897 5896 5894 5893 5891 5890 5889 5888 5887 5886 5886 5885 5885 5883 5882 5881 5880 5879 5878 5877 5876 5875 5874 5872 5870 5869 5867 5865 5863 5861 5858 5856 5854 5851 5849 5847 5844 5841
5886 5886 5887 5887 5888 5890 5892 5894 5895 5897 5898 5899 5900 5901 5900 5899 5899 5899 5900 5900 5901 5901 5901 5901 5900 5900 5901 5900 5900 5900 5900 5899 5899 5899 5899 5898 5898 5899 5898 5898 5898 5899 5899 5900 5900 5899 5899 5898 5897 5896 5894 5892 5891 5889 5888 5887 5886 5885 5885 5884 5884 5883 5882 5881 5880 5878 5877 5877 5875 5874 5873 5872 5871 5869 5867 5865 5863 5861 5859 5857 5854 5852 5849 5847 5844 5841 5838
5883 5884 5884 5884 5885 5886 5889 5891 5893 5894 5895 5896 5897 5898 5898 5897 5897 5897 5897 5898 5898 5899 5899 5898 5898 5897 5898 5898 5898 5898 5898 5897 5896 5896 5895 5896 5896 5897 5896 5896 5896 5897 5898 5898 5899 5898 5898 5898 5896 5894 5892 5890 5889 5887 5886 5885 5884 5883 5883 5883 5882 5881 5880 5879 5878 5877 5876 5875 5874 5872 5871 5870 5869 5868 5866 5863 5861 5859 5857 5855 5853 5850 5848 5845 5842 5839 5836
5880 5881 5881 5882 5883 5884 5886 5888 5890 5891 5892 5892 5894 5895 5895 5895 5895 5896 5896 5896 5896 5896 5897 5896 5895 5895 5895 5895 5896 5896 5896 5895 5894 5893 5892 5893 5894 5894 5894 5894 5894 5895 5896 5897 5897 5897 5897 5896 5895 5893 5890 5888 5887 5885 5884 5883 5882 5881 5881 5880 5880 5879 5878 5878 5876 5875 5874 5873 5872 5871 5869 5868 5867 5866 5864 5861 5859 5858 5856 5854 5851 5848 5846 5843 5840 5838 5834
5877 5878 5877 5879 5881 5882 5884 5885 5887 5888 5890 5890 5891 5892 5893 5893 5893 5894 5894 5893 5893 5893 5893 5893 5893 5892 5892 5893 5893 5893 5893 5892 5891 5890 5889 5889 5891 5891 5891 5891 5890 5891 5893 5894 5894 5894 5894 5893 5892 5890 5888 5886 5885 5883 5882 5881 5880 5879 5879 5878 5878 5877 5876 5875 5874 5873 5872 5872 5870 5869 5867 5866 5865 5863 5862 5860 5858 5856 5853 5851 5849 5846 5844 5841 5839 5836 5833
5874 5874 5874 5876 5878 5879 5881 5882 5884 5886 5887 5888 5889 5890 5890 5890 5890 5890 5890 5889 5889 5889 5889 5889 5890 5889 5889 5890 5890 5890 5889 5888 5887 5887 5886 5886 5887 5888 5887 5887 5887 5888 5889 5890 5891 5891 5890 5889 5888 5887 5885 5884 5883 5881 5881 5880 5879 5878 5877 5876 5876 5875 5874 5873 5872 5871 5871 5870 5869 5867 5865 5864 5862 5861 5859 5857 5855 5853 5851 5849 5847 5845 5843 5840 5837 5834 5831
5871 5871 5872 5873 5874 5876 5877 5879 5881 5882 5883 5884 5886 5886 5886 5886 5886 5885 5885 5885 5885 5886 5885 5885 5886 5886 5886 5886 5885 5885 5885 5884 5884 5884 5883 5884 5884 5883 5881 5880 5881 5882 5885 5886 5887 5888 5887 5887 5886 5885 5883 5882 5881 5880 5879 5879 5878 5877 5876 5875 5874 5873 5872 5872 5871 5870 5869 5868 5867 5865 5863 5861 5860 5858 5856 5855 5853 5852 5851 5849 5846 5844 5842 5839 5836 5832 5829
5869 5869 5869 5870 5870 5871 5873 5875 5877 5878 5880 5880 5881 5881 5882 5882 5882 5882 5882 5881 5881 5882 5882 5882 5882 5882 5881 5881 5881 5881 5881 5881 5881 5880 5880 5881 5882 5881 5879 5877 5875 5875 5879 5883 5884 5885 5885 5885 5884 5883 5882 5881 5880 5879 5878 5877 5877 5876 5875 5874 5873 5872 5871 5870 5869 5868 5867 5866 5865 5863 5861 5860 5858 5856 5855 5854 5853 5852 5850 5848 5845 5843 5840 5837 5834 5831 5828
5866 5866 5866 5867 5867 5867 5869 5870 5872 5873 5875 5877 5877 5877 5877 5878 5879 5879 5879 5878 5877 5878 5878 5878 5878 5877 5877 5877 5877 5877 5878 5878 5878 5877 5877 5878 5879 5881 5881 5880 5876 5873 5874 5878 5881 5882 5883 5884 5883 5882 5881 5880 5879 5878 5877 5876 5875 5874 5873 5872 5872 5871 5870 5869 5868 5867 5865 5864 5863 5862 5861 5860 5858 5857 5855 5854 5853 5851 5849 5846 5844 5841 5838 5835 5832 5830 5827
5863 5863 5863 5863 5863 5863 5864 5866 5866 5868 5870 5872 5873 5873 5873 5873 5875 5876 5876 5874 5873 5874 5875 5875 5874 5873 5873 5873 5873 5873 5874 5874 5874 5874 5875 5876 5877 5878 5879 5880 5879 5875 5872 5874 5878 5881 5881 5882 5882 5881 5880 5879 5878 5877 5876 5875 5874 5873 5872 5871 5870 5869 5868 5868 5867 5865 5864 5863 5862 5861 5861 5859 5858 5856 5855 5853 5851 5849 5847 5845 5843 5840 5837 5834 5832 5829 5826
5859 5860 5860 5859 5859 5859 5860 5862 5862 5863 5866 5867 5869 5869 5869 5869 5870 5872 5872 5871 5869 5870 5871 5872 5871 5870 5869 5869 5869 5869 5869 5870 5870 5871 5872 5873 5874 5875 5875 5877 5878 5876 5872 5871 5875 5879 5880 5880 5880 5879 5878 5877 5876 5876 5875 5874 5873 5872 5871 5870 5869 5868 5867 5867 5866 5865 5864 5862 5861 5860 5859 5857 5856 5854 5853 5851 5849 5847 5845 5844 5841 5839 5836 5834 5831 5829 5826
5854 5856 5857 5856 5856 5857 5858 5859 5859 5859 5861 5863 5864 5864 5864 5865 5866 5867 5868 5867 5866 5867 5868 5868 5868 5867 5866 5865 5865 5865 5865 5866 5867 5867 5868 5868 5869 5870 5871 5872 5875 5875 5872 5871 5872 5875 5878 5878 5878 5877 5877 5876 5875 5875 5874 5873 5873 5872 5871 5870 5868 5867 5866 5866 5865 5864 5862 5860 5859 5857 5856 5854 5853 5852 5851 5849 5848 5846 5845 5843 5841 5838 5836 5833 5831 5828 5825
5850 5852 5853 5853 5854 5855 5855 5856 5855 5855 5856 5857 5859 5860 5860 5861 5862 5863 5864 5864 5863 5863 5864 5864 5864 5864 5863 5863 5863 5863 5863 5863 5863 5863 5863 5863 5863 5863 5865 5869 5872 5872 5871 5870 5870 5872 5875 5876 5875 5875 5875 5875 5874 5874 5873 5872 5872 5871 5870 5869 5868 5867 5866 5864 5863 5862 5860 5859 5857 5855 5854 5852 5851 5850 5849 5848 5847 5845 5844 5842 5840 5838 5835 5833 5830 5827 5824
5846 5847 5848 5849 5850 5851 5851 5852 5852 5851 5851 5852 5855 5856 5857 5857 5858 5859 5860 5861 5860 5860 5861 5862 5862 5861 5861 5862 5862 5862 5862 5861 5861 5860 5858 5857 5857 5857 5859 5863 5869 5870 5869 5868 5869 5870 5871 5873 5873 5874 5874 5874 5873 5872 5871 5871 5871 5870 5869 5868 5867 5866 5865 5863 5862 5861 5859 5858 5856 5854 5853 5851 5850 5849 5848 5847 5845 5844 5842 5841 5839 5837 5834 5832 5829 5827 5824
5841 5842 5843 5844 5845 5846 5846 5847 5848 5848 5848 5849 5850 5852 5853 5854 5854 5855 5857 5858 5858 5858 5859 5859 5859 5858 5859 5860 5862 5863 5862 5861 5859 5858 5856 5855 5855 5856 5857 5860 5865 5868 5868 5867 5867 5868 5869 5870 5872 5872 5872 5872 5871 5870 5869 5869 5868 5868 5867 5867 5866 5865 5864 5863 5861 5860 5858 5857 5855 5854 5852 5851 5850 5849 5847 5846 5844 5842 5841 5840 5838 5836 5834 5831 5829 5826 5824
5837 5837 5837 5838 5839 5841 5841 5842 5844 5845 5845 5845 5847 5848 5849 5850 5851 5852 5853 5855 5856 5856 5856 5856 5856 5855 5856 5857 5859 5861 5861 5861 5860 5859 5857 5855 5855 5857 5859 5861 5862 5865 5867 5868 5867 5867 5868 5868 5869 5870 5871 5870 5869 5868 5867 5866 5865 5865 5865 5864 5864 5863 5863 5862 5860 5858 5857 5855 5854 5852 5851 5850 5849 5847 5846 5845 5843 5841 5840 5839 5838 5836 5833 5831 5828 5826 5824
5832 5831 5831 5832 5834 5836 5837 5838 5840 5841 5842 5842 5843 5844 5845 5847 5848 5849 5850 5852 5853 5853 5853 5853 5853 5853 5853 5855 5856 5856 5857 5858 5858 5858 5858 5857 5855 5854 5857 5860 5861 5862 5865 5867 5868 5867 5867 5866 5867 5868 5868 5867 5866 5865 5865 5864 5863 5862 5862 5862 5862 5861 5861 5860 5858 5857 5855 5854 5852 5851 5850 5849 5847 5846 5845 5843 5842 5840 5839 5838 5837 5835 5833 5830 5828 5826 5824
5826 5827 5828 5828 5830 5832 5833 5835 5835 5837 5838 5839 5840 5841 5842 5843 5844 5846 5847 5848 5849 5850 5850 5850 5850 5851 5852 5852 5853 5853 5853 5853 5855 5856 5858 5859 5856 5853 5853 5856 5858 5860 5862 5864 5866 5866 5865 5864 5865 5865 5865 5865 5864 5863 5863 5862 5861 5861 5860 5860 5860 5859 5858 5858 5857 5855 5854 5853 5851 5850 5848 5847 5846 5845 5844 5842 5841 5840 5839 5838 5836 5834 5833 5830 5828 5826 5823
5822 5823 5824 5824 5826 5827 5829 5830 5831 5832 5834 5835 5836 5837 5838 5839 5841 5842 5843 5844 5845 5846 5847 5847 5848 5849 5850 5850 5851 5851 5851 5851 5852 5854 5856 5859 5859 5856 5855 5856 5857 5858 5860 5861 5864 5865 5864 5862 5862 5863 5863 5863 5862 5862 5861 5860 5859 5859 5859 5858 5858 5857 5857 5856 5855 5854 5853 5851 5850 5849 5847 5846 5845 5844 5842 5841 5840 5839 5838 5837 5836 5834 5832 5830 5828 5826 5824
5817 5818 5819 5820 5821 5823 5824 5826 5827 5828 5829 5830 5831 5832 5833 5835 5837 5838 5839 5840 5841 5842 5843 5844 5845 5846 5848 5848 5848 5849 5850 5850 5850 5851 5853 5855 5856 5857 5857 5857 5857 5858 5858 5859 5861 5863 5862 5861 5861 5861 5861 5861 5860 5860 5859 5858 5858 5858 5858 5857 5857 5856 5855 5855 5854 5853 5851 5850 5849 5847 5846 5845 5843 5842 5841 5840 5839 5838 5837 5836 5835 5834 5832 5830 5828 5826 5824
5812 5813 5814 5815 5817 5818 5819 5821 5822 5824 5825 5826 5827 5828 5829 5831 5833 5834 5834 5835 5836 5838 5839 5840 5841 5843 5844 5845 5845 5846 5847 5848 5849 5849 5849 5850 5850 5852 5854 5856 5856 5856 5856 5857 5859 5861 5860 5859 5859 5859 5858 5858 5858 5858 5857 5857 5856 5856 5855 5855 5855 5854 5854 5853 5852 5852 5851 5849 5848 5846 5845 5843 5842 5841 5840 5839 5838 5837 5836 5835 5834 5833 5832 5830 5828 5826 5824
5807 5808 5809 5811 5812 5813 5815 5816 5817 5819 5820 5821 5822 5824 5825 5827 5829 5830 5830 5831 5831 5833 5835 5837 5838 5840 5840 5841 5842 5843 5844 5844 5845 5845 5846 5846 5845 5846 5850 5853 5854 5854 5854 5854 5856 5858 5858 5857 5857 5856 5855 5855 5855 5856 5855 5855 5854 5853 5853 5852 5852 5852 5851 5851 5851 5850 5849 5848 5847 5845 5844 5842 5841 5840 5839 5838 5837 5836 5835 5834 5833 5832 5831 5830 5828 5826 5824
5803 5804 5805 5806 5807 5809 5810 5811 5813 5814 5816 5817 5818 5820 5821 5822 5824 5825 5826 5826 5826 5828 5830 5832 5834 5836 5837 5837 5838 5838 5839 5840 5840 5841 5842 5842 5842 5842 5845 5849 5852 5852 5851 5852 5854 5856 5856 5855 5854 5853 5852 5852 5853 5853 5853 5853 5853 5852 5851 5851 5850 5850 5850 5850 5849 5849 5848 5847 5845 5844 5842 5841 5840 5839 5838 5837 5836 5835 5834 5834 5833 5832 5831 5829 5828 5826 5824
5797 5799 5800 5801 5803 5804 5805 5807 5809 5810 5812 5813 5814 5815 5816 5817 5819 5820 5821 5821 5821 5823 5825 5827 5830 5832 5833 5833 5833 5833 5833 5834 5835 5836 5838 5839 5839 5838 5840 5846 5850 5850 5849 5850 5852 5853 5853 5852 5851 5850 5850 5850 5850 5851 5851 5851 5851 5850 5850 5849 5849 5848 5848 5848 5848 5847 5846 5845 5844 5843 5841 5840 5839 5838 5837 5836 5835 5835 5834 5833 5832 5831 5830 5829 5828 5826 5824
5793 5794 5796 5797 5798 5800 5801 5803 5804 5806 5807 5808 5809 5810 5811 5811 5813 5814 5815 5816 5816 5818 5820 5822 5824 5827 5828 5828 5829 5829 5828 5829 5831 5832 5834 5836 5837 5837 5839 5844 5847 5847 5846 5848 5850 5850 5850 5848 5848 5847 5847 5847 5847 5848 5848 5848 5848 5848 5848 5848 5848 5847 5847 5846 5846 5845 5845 5844 5843 5842 5840 5839 5838 5837 5836 5836 5835 5834 5833 5832 5831 5831 5830 5829 5827 5826 5824
5789 5790 5792 5793 5794 5795 5796 5798 5800 5801 5802 5803 5804 5805 5805 5806 5807 5808 5809 5810 5811 5813 5815 5816 5819 5821 5823 5824 5825 5825 5824 5825 5827 5829 5831 5833 5835 5837 5840 5842 5843 5843 5844 5846 5848 5847 5846 5845 5845 5845 5845 5845 5845 5845 5845 5845 5845 5845 5846 5846 5846 5846 5845 5845 5844 5843 5843 5842 5841 5840 5839 5838 5837 5836 5836 5835 5834 5833 5832 5832 5831 5830 5829 5828 5827 5826 5824
5785 5787 5787 5788 5789 5790 5792 5793 5794 5795 5797 5798 5798 5799 5799 5800 5801 5802 5803 5804 5806 5807 5809 5811 5813 5816 5818 5819 5820 5821 5821 5822 5823 5824 5826 5829 5832 5834 5837 5838 5839 5840 5842 5844 5845 5844 5843 5843 5843 5843 5843 5843 5843 5843 5843 5844 5844 5843 5843 5844 5844 5844 5844 5843 5842 5842 5841 5841 5840 5839 5838 5837 5836 5835 5835 5834 5833 5832 5831 5831 5830 5829 5828 5828 5827 5825 5824
5781 5782 5783 5783 5785 5786 5787 5788 5789 5790 5791 5792 5793 5793 5794 5795 5796 5797 5797 5798 5799 5801 5803 5805 5808 5811 5812 5814 5814 5815 5816 5818 5819 5819 5822 5824 5827 5829 5832 5835 5836 5837 5839 5840 5841 5841 5840 5840 5841 5841 5841 5841 5842 5842 5842 5842 5842 5842 5842 5842 5842 5843 5842 5842 5841 5840 5840 5839 5838 5837 5836 5835 5835 5834 5834 5833 5832 5831 5831 5830 5829 5829 5828 5827 5826 5825 5823
5777 5777 5778 5779 5780 5781 5782 5783 5784 5785 5786 5787 5787 5788 5788 5789 5790 5790 5791 5791 5793 5794 5796 5799 5802 5805 5806 5806 5806 5808 5810 5812 5813 5815 5817 5821 5823 5825 5828 5831 5833 5834 5835 5836 5837 5837 5838 5838 5838 5838 5839 5839 5840 5840 5840 5841 5841 5841 5840 5840 5841 5841 5841 5840 5839 5839 5838 5837 5836 5836 5835 5834 5834 5833 5833 5832 5831 5831 5830 5829 5828 5828 5827 5826 5825 5824 5823
5772 5773 5774 5775 5776 5777 5778 5778 5779 5780 5781 5781 5782 5782 5782 5783 5784 5785 5785 5786 5786 5787 5789 5791 5795 5798 5799 5798 5799 5802 5805 5807 5809 5811 5814 5817 5820 5822 5825 5828 5830 5831 5832 5832 5833 5833 5835 5836 5836 5836 5836 5837 5837 5838 5838 5839 5839 5839 5839 5839 5839 5839 5839 5838 5838 5837 5836 5836 5835 5834 5834 5833 5833 5832 5832 5831 5830 5829 5829 5828 5827 5827 5826 5825 5824 5823 5822
5768 5769 5770 5771 5772 5772 5773 5773 5774 5775 5776 5776 5776 5777 5777 5778 5778 5779 5780 5780 5781 5781 5782 5784 5787 5791 5792 5793 5795 5798 5801 5804 5806 5808 5810 5813 5816 5820 5823 5825 5826 5827 5828 5828 5829 5830 5832 5833 5833 5834 5834 5835 5835 5835 5836 5837 5838 5838 5838 5837 5837 5837 5837 5837 5836 5836 5835 5834 5834 5833 5833 5832 5832 5831 5830 5830 5829 5828 5828 5827 5826 5826 5825 5824 5823 5822 5821
5765 5766 5766 5767 5767 5767 5768 5769 5769 5770 5771 5771 5771 5772 5772 5773 5773 5774 5775 5775 5776 5776 5777 5778 5781 5784 5787 5789 5792 5795 5798 5801 5804 5806 5808 5811 5814 5817 5820 5821 5822 5823 5824 5825 5826 5828 5829 5830 5831 5831 5832 5833 5833 5834 5835 5835 5836 5835 5836 5836 5836 5836 5835 5835 5835 5834 5833 5833 5832 5832 5831 5830 5830 5830 5829 5828 5828 5827 5826 5826 5825 5825 5824 5823 5822 5821 5820
5762 5762 5763 5763 5763 5763 5764 5765 5766 5766 5767 5767 5767 5767 5767 5767 5768 5768 5768 5769 5770 5771 5772 5773 5776 5779 5782 5785 5789 5791 5795 5798 5801 5803 5805 5808 5811 5813 5814 5815 5817 5819 5820 5821 5823 5825 5826 5827 5828 5829 5830 5830 5831 5832 5833 5834 5833 5833 5833 5834 5834 5834 5834 5834 5833 5832 5832 5831 5831 5830 5829 5829 5829 5828 5828 5827 5827 5826 5825 5825 5824 5823 5823 5822 5821 5820 5820
5759 5759 5759 5759 5759 5760 5760 5761 5762 5763 5763 5763 5762 5762 5762 5762 5762 5762 5762 5761 5762 5763 5765 5768 5772 5775 5778 5781 5784 5787 5789 5793 5796 5798 5801 5804 5806 5807 5808 5810 5813 5815 5817 5818 5820 5821 5823 5824 5825 5826 5828 5828 5829 5830 5831 5831 5832 5832 5832 5832 5832 5832 5832 5832 5831 5831 5831 5830 5829 5828 5828 5828 5827 5827 5827 5826 5826 5825 5824 5824 5823 5822 5822 5821 5820 5819 5819
5756 5756 5757 5757 5757 5757 5757 5758 5759 5760 5760 5759 5758 5757 5757 5757 5758 5758 5758 5757 5757 5758 5761 5765 5769 5772 5774 5777 5780 5782 5785 5788 5791 5794 5797 5800 5802 5803 5805 5808 5810 5813 5814 5815 5817 5819 5820 5821 5823 5824 5826 5826 5827 5828 5828 5829 5829 5830 5830 5831 5831 5831 5831 5830 5830 5830 5829 5828 5827 5827 5827 5826 5826 5826 5825 5825 5824 5824 5823 5822 5822 5821 5821 5820 5819 5818 5818
5753 5754 5754 5754 5754 5754 5753 5754 5755 5757 5757 5756 5755 5754 5754 5755 5756 5756 5756 5755 5755 5756 5759 5763 5766 5769 5771 5773 5776 5779 5782 5785 5788 5791 5794 5797 5799 5801 5803 5806 5809 5811 5812 5813 5815 5816 5817 5819 5821 5823 5824 5825 5825 5826 5826 5827 5827 5828 5829 5829 5829 5830 5829 5829 5829 5828 5827 5827 5826 5825 5825 5825 5825 5825 5824 5823 5823 5822 5822 5821 5821 5820 5820 5819 5818 5818 5817
5751 5752 5752 5752 5751 5750 5750 5751 5752 5753 5754 5753 5752 5751 5751 5752 5753 5754 5754 5754 5754 5756 5758 5761 5764 5767 5769 5772 5775 5778 5781 5783 5785 5788 5790 5794 5796 5799 5801 5805 5808 5809 5810 5811 5812 5813 5815 5817 5820 5821 5822 5823 5824 5824 5824 5825 5826 5827 5827 5827 5828 5828 5828 5828 5827 5827 5826 5825 5824 5824 5824 5824 5824 5823 5823 5822 5821 5821 5820 5820 5819 5819 5819 5818 5817 5817 5816
5749 5749 5749 5749 5749 5748 5747 5748 5749 5750 5750 5750 5749 5749 5749 5750 5751 5752 5752 5753 5753 5755 5757 5760 5763 5765 5768 5770 5773 5775 5777 5779 5781 5783 5785 5789 5793 5796 5799 5803 5805 5806 5807 5808 5810 5812 5814 5816 5818 5819 5820 5821 5822 5823 5823 5824 5825 5825 5825 5826 5826 5826 5826 5826 5826 5825 5824 5823 5823 5823 5823 5823 5822 5822 5821 5821 5820 5819 5819 5819 5818 5818 5818 5817 5817 5816 5815
5747 5747 5746 5746 5746 5746 5746 5747 5747 5747 5747 5747 5747 5747 5748 5749 5749 5750 5750 5750 5750 5752 5755 5758 5761 5763 5765 5768 5770 5773 5775 5777 5778 5780 5782 5786 5790 5794 5797 5799 5802 5803 5805 5806 5808 5811 5813 5814 5816 5817 5818 5819 5820 5821 5822 5822 5823 5824 5824 5825 5825 5825 5825 5825 5824 5823 5822 5822 5822 5821 5821 5821 5821 5820 5820 5819 5819 5818 5818 5817 5817 5817 5817 5816 5816 5815 5814
5745 5744 5744 5744 5744 5744 5745 5745 5745 5745 5745 5745 5745 5746 5746 5747 5748 5748 5747 5747 5748 5750 5753 5756 5759 5761 5764 5766 5769 5771 5774 5776 5778 5780 5782 5785 5789 5792 5795 5797 5799 5801 5803 5805 5807 5809 5811 5812 5813 5814 5816 5817 5819 5820 5820 5821 5822 5823 5823 5823 5824 5824 5824 5823 5823 5822 5821 5821 5820 5820 5820 5820 5819 5819 5819 5818 5817 5817 5816 5816 5816 5816 5815 5815 5815 5814 5814